Regional Weather Roundup
Issued by NWS

Home | Current Version | Previous Version | Graphics & Text | Print | Product List | Glossary On
Versions: 1 2 3 4 5 6 7 8 9 10 11 12 13 14 15 16 17 18 19 20 21 22 23 24 25 26 27 28 29 30 31 32 33 34 35 36 37 38 39 40 41 42 43 44 45 46 47 48 49 50
000
ASUS43 KMKX 051111
RWRWI

WISCONSIN REGIONAL WEATHER ROUNDUP
NATIONAL WEATHER SERVICE MILWAUKEE/SULLIVAN WI
600 AM CDT TUE MAY 05 2015

NOTE: "FAIR" INDICATES FEW OR NO CLOUDS BELOW 12,000 FEET WITH NO
SIGNIFICANT WEATHER AND/OR OBSTRUCTIONS TO VISIBILITY.

WIZ001-002-006>008-014>016-023>028-051200-
NORTHWEST WISCONSIN

CITY           SKY/WX    TMP DP  RH WIND       PRES   REMARKS
SUPERIOR ARPT  CLEAR     28  27  96 CALM      30.27S
ASHLAND        CLEAR     33  31  92 W5        30.28R WCI  29
HAYWARD        CLEAR     34  30  85 CALM      30.26S
SIREN          CLEAR     32  27  80 CALM      30.23S
CUMBERLAND     CLEAR     43  32  65 NE5       30.24R
RICE LAKE      CLEAR     49  33  53 E7        30.25R
CHETEK         CLEAR     49  37  63 NE3       30.24S
LADYSMITH      CLEAR     47  35  65 E6        30.27S
EAU CLAIRE     MOCLDY    47  38  71 NE6       30.22R
MENOMONIE      PTCLDY    47  39  73 NE5       30.23R
NEW RICHMOND   CLEAR     47  33  57 E3        30.21R
OSCEOLA        CLEAR     49  35  58 E10       30.24R
$$

WIZ003>005-009-010-017-018-051200-
NORTH CENTRAL WISCONSIN

CITY           SKY/WX    TMP DP  RH WIND       PRES   REMARKS
MANITOWISH WTR CLEAR     32  32  99 CALM      30.29R
ARBOR VITAE    CLEAR     37  35  90 CALM      30.28S
WOODRUFF       CLEAR     37  35  90 CALM      30.28S
RHINELANDER    FAIR      39  36  89 CALM      30.29S
EAGLE RIVER    CLEAR     33  33  99 CALM      30.29R
LAND O LAKES   CLEAR     31  31 100 CALM      30.31R
PHILLIPS       CLEAR     42  33  69 E3        30.27R
TOMAHAWK       PTCLDY    32  30  94 CALM      30.28S
MEDFORD        PTCLDY    41  36  80 E6        30.25S
MERRILL        PTCLDY    40  35  83 NE3       30.27S
$$

WIZ029-030-035-036-043>047-051200-
CENTRAL WISCONSIN

CITY           SKY/WX    TMP DP  RH WIND       PRES   REMARKS
WAUSAU         MOCLDY    46  32  58 E8        30.25R
MOSINEE        CLEAR     45  34  65 E8        30.26S
MARSHFIELD     MOCLDY    47  33  58 E8        30.24R
STEVENS POINT  MOCLDY    45  33  62 E6        30.26R
WAUPACA        CLOUDY    49  37  61 CALM      30.28R
WAUTOMA        CLOUDY    50  38  63 E7        30.27R
WISC RAPIDS    MOCLDY    50  32  50 E7        30.25R
CAMP DOUGLAS   CLOUDY    51  38  62 E7        30.22R
$$

WIZ011>013-019>022-031-037>040-048>050-051200-
NORTHEAST WISCONSIN

CITY           SKY/WX    TMP DP  RH WIND       PRES   REMARKS
ANTIGO         MOCLDY    42  33  69 NE6       30.28S
SHAWANO        CLOUDY    49  38  66 NE8       30.29R
OCONTO         CLOUDY    40  37  91 CALM      30.29R
STURGEON BAY   CLOUDY    45  32  61 E6        30.31R
GREEN BAY      CLOUDY    50  36  58 E7        30.28R
MANITOWOC      CLOUDY    46  36  68 NE3       30.29R
APPLETON       MOCLDY    50  32  50 E8        30.27R
CLINTONVILLE   CLOUDY    45  34  65 NE5       30.27R
OSHKOSH        CLOUDY    52  37  56 E8        30.26R
$$

WIZ032>034-041-042-053>061-051200-
SOUTHWEST WISCONSIN

CITY           SKY/WX    TMP DP  RH WIND       PRES   REMARKS
LA CROSSE      CLOUDY    57  42  57 SE5       30.19R
SPARTA         CLOUDY    52  38  60 E6        30.22R
VIROQUA        CLOUDY    48  48 100 E15       30.19R
BOSCOBEL       LGT RAIN  52  48  86 NE9G17    30.19R
PRAIRIE DU CHI LGT RAIN  52  47  83 E7        30.17R
PLATTEVILLE    CLOUDY    51  50  93 E14       30.17R
$$

WIZ056-057-062-063-064-067-068-051200-
SOUTH CENTRAL WISCONSIN

CITY           SKY/WX    TMP DP  RH WIND       PRES   REMARKS
REEDSBURG      RAIN      48  46  93 E6        30.22R
BARABOO/DELLS  NOT AVBL
LONE ROCK      LGT RAIN  51  47  86 E15G24    30.21R
MINERAL POINT  LGT RAIN  52  48  87 E13G18    30.17S
MADISON        LGT RAIN  50  45  83 E9        30.22S
MIDDLETON      CLOUDY    51  47  85 E8        30.22S
WATERTOWN      DRIZZLE   48  44  86 NE7       30.24R
MONROE         LGT RAIN  50  48  93 NE12G17   30.18F
JANESVILLE     LGT RAIN  52  48  87 E9        30.21R
$$

WIZ051-052-058>065-066-070>072-051200-
SOUTHEAST WISCONSIN

CITY           SKY/WX    TMP DP  RH WIND       PRES   REMARKS
MILWAUKEE      LGT RAIN  44  39  82 NE12      30.24S
WAUKESHA       CLOUDY    46  39  76 NE9       30.25R
MILWAUKEE/TIMM CLOUDY    45  37  76 NE7       30.26S
RACINE         LGT RAIN  46  41  82 NE6       30.25S
BURLINGTON     LGT RAIN  47  44  91 E3        30.23R
KENOSHA        LGT RAIN  48  44  86 E13       30.23R
FOND DU LAC    CLOUDY    52  35  52 E5        30.25S
SHEBOYGAN      CLOUDY    45  36  70 NE7       30.27S
WEST BEND      LGT RAIN  45  41  87 E5        30.26S
JUNEAU         RAIN      48  39  71 E8        30.26S
$$

LSZ147-162-051200-
LAKE SUPERIOR

STATION/POSITION TIME  TEMP    WIND        PRES    WAVE
                       AIR SEA DIR/SP/G            HT/PER
                 (UTC) (F)     (DEG/KT/KT) (MB)    (FT/S)
W MID LAKE BUOY  1050   39 35  100/  2/  4 1026.4R   0
DEVILS ISLAND    1100   50     150/  3/  3 1025.6F
PORT WING        1040   34     180/  4/  5 1025.1R
SAXON HARBOR     1000   35        CALM     1024.4
$$

LMZ867-665-643>646-051200-
LAKE MICHIGAN

STATION/POSITION TIME  TEMP    WIND        PRES    WAVE
                       AIR SEA DIR/SP/G            HT/PER
                 (UTC) (F)     (DEG/KT/KT) (MB)    (FT/S)
CHAMBERS ISLAND  1040   44      10/  2/  4 1026.1R
NORTHPORT PIER   1000   42     320/  4/  6 1025.7S
KEWAUNEE LAKESHO 1000   46      40/ 11/ 14 1024.0S
SHEBOYGAN LAKESH 1100   43      10/  9/  9 1025.9R
PORT WASHINGTON  1000   49      30/  5/  7 1025.1S
ATWATER BUOY     1000   45      10/ 12/ 14 1025.5R
MILWAUKEE LAKESH 1000   45      30/ 12/ 14   N/A
KENOSHA   LAKESH 1100   46      20/  8/ 11 1024.0R
$$

TC  - TEMPERATURE IN CELSIUS
VSB - VISIBILITY IN STATUTE MILES
WCI - WIND CHILL INDEX
HX  - HEAT INDEX



USA.gov is the U.S. government's official web portal to all federal, state and local government web resources and services.